Location: Devore Heights
(34.2372°N, 117.4156°W)
Time: 18:06:09
(UTC+00:00)

deb Explorer IX - Pass Details

Date: 16 September 2024
Orbit: 502 x 816 km, 38.7° (Epoch: 15 October)

Event Time Altitude Azimuth Distance (km) Brightness Sun altitude
Rises 04:31:53 0° 267° (W) 3,403 ? -31.8°
Reaches altitude 10° 04:34:28 10° 271° (W) 2,475 ? -32.3°
Enters shadow 04:39:15 51° 307° (NW) 1,056 ? -33.1°
Maximum altitude 04:40:21 60° 351° (N) 961 - -33.3°
Drops below altitude 10° 04:46:02 10° 71° (ENE) 2,397 - -34.3°
Sets 04:48:31 0° 75° (ENE) 3,288 - -34.8°
